sat.trackr.live / text

‹ back to catalog

LONGJIANG 3

NORAD 56874 · 2023-082A

PAYLOAD ACTIVE UNKNOWN

§ Identity

Operator
Country
PRC
Launch date
2023-06-09
Launch site
JSC
Launch vehicle
Mass (kg)
RCS (m²)

External: N2YO · Heavens-Above · Gunter

§ Orbital elements

Epoch: 2026-09-21T23:28:34.016736Z

Period
93.86 min
Inclination
49.1034°
Eccentricity
0.0006328
Mean motion
15.34135540 rev/d
Perigee alt
459.2 km
Apogee alt
467.8 km
Semi-major
6,841.6 km
B*
1.8891e-4
RAAN
269.2196°
Arg perigee
103.7735°
Mean anomaly
256.3917°
Rev number
18,425

§ Raw data

LONGJIANG 31 56874U 23082A   26264.97817149  .00005987  00000+0  18891-3 0  99992 56874  49.1034 269.2196 0006328 103.7735 256.3917 15.34135540184257

JSON: /api/v1/satellites/56874 · /tle

For live sub-satellite position, see the globe view (requires WebGL).

§ Visibility from observer

Set your observer location to see the next 7 days of passes ≥ 10°. The values pass through the URL so the page stays shareable.

No JS? Fill the form by hand. The geolocation button needs JavaScript.